• In Latvia
  • List of Countries
  • For 7 days
  • Water Temperature
  • Satellite Maps
  • Weather Map
  • Weather Widgets
  • user-avatar
    Login

    Hourly Weather Ebikon

    Today, 24 May, Thursday

    Time Temperature Precipitation Wind Pressure Humidity
    00:00 +14°C° 0.4 mm 1 mps 722 mmHg 94%
    01:00 +14°C° 0 mm 1 mps 722 mmHg 94%
    02:00 +14°C° 0.3 mm 1 mps 722 mmHg 93%
    03:00 +14°C° 0.3 mm 1 mps 722 mmHg 93%
    04:00 +13°C° 0.3 mm 1 mps 722 mmHg 93%
    05:00 +14°C° 0.1 mm 1 mps 723 mmHg 91%
    06:00 +15°C° 0.1 mm 1 mps 723 mmHg 90%
    07:00 +15°C° 0.1 mm 0 mps 723 mmHg 89%
    08:00 +19°C° 0.1 mm 1 mps 723 mmHg 80%
    09:00 +21°C° 0.1 mm 1 mps 723 mmHg 72%
    10:00 +23°C° 0.1 mm 1 mps 723 mmHg 63%
    11:00 +23°C° 0.3 mm 1 mps 723 mmHg 61%
    12:00 +24°C° 0.3 mm 1 mps 722 mmHg 58%
    13:00 +25°C° 0.3 mm 1 mps 722 mmHg 55%
    14:00 +25°C° 0.4 mm 1 mps 722 mmHg 57%
    15:00 +25°C° 0.4 mm 1 mps 722 mmHg 58%
    16:00 +25°C° 0.4 mm 1 mps 722 mmHg 59%
    17:00 +24°C° 0.3 mm 1 mps 722 mmHg 65%
    18:00 +22°C° 0.3 mm 1 mps 722 mmHg 72%
    19:00 +21°C° 0.3 mm 1 mps 722 mmHg 79%
    20:00 +20°C° 0.1 mm 1 mps 722 mmHg 83%
    21:00 +18°C° 0.1 mm 1 mps 722 mmHg 86%
    22:00 +16°C° 0.1 mm 1 mps 722 mmHg 89%
    23:00 +15°C° 0 mm 1 mps 722 mmHg 90%

    Tomorrow, 25 May, Friday

    Time Temperature Precipitation Wind Pressure Humidity
    00:00 +15°C° 0 mm 1 mps 722 mmHg 90%
    01:00 +14°C° 0 mm 1 mps 723 mmHg 91%
    02:00 +14°C° 0 mm 1 mps 722 mmHg 91%
    03:00 +14°C° 0 mm 1 mps 722 mmHg 91%
    04:00 +13°C° 0 mm 1 mps 722 mmHg 90%
    05:00 +15°C° 0 mm 1 mps 722 mmHg 87%
    06:00 +16°C° 0 mm 1 mps 722 mmHg 83%
    07:00 +17°C° 0 mm 0 mps 723 mmHg 80%
    08:00 +21°C° 0 mm 1 mps 723 mmHg 71%
    09:00 +23°C° 0 mm 1 mps 723 mmHg 62%
    10:00 +25°C° 0 mm 1 mps 723 mmHg 52%
    11:00 +26°C° 0 mm 1 mps 723 mmHg 49%
    12:00 +27°C° 0 mm 1 mps 723 mmHg 46%
    13:00 +28°C° 0 mm 1 mps 723 mmHg 43%
    14:00 +28°C° 0.1 mm 1 mps 723 mmHg 44%
    15:00 +27°C° 0.1 mm 1 mps 722 mmHg 45%
    16:00 +27°C° 0.1 mm 1 mps 722 mmHg 46%
    17:00 +26°C° 0.2 mm 1 mps 722 mmHg 54%
    18:00 +24°C° 0.2 mm 1 mps 722 mmHg 62%
    19:00 +23°C° 0.2 mm 1 mps 722 mmHg 70%
    20:00 +21°C° 0.2 mm 1 mps 722 mmHg 73%
    21:00 +20°C° 0.2 mm 1 mps 723 mmHg 77%
    22:00 +18°C° 0.2 mm 1 mps 723 mmHg 80%
    23:00 +18°C° 0 mm 1 mps 723 mmHg 80%

    Day after tomorrow, 26 May, Saturday

    Time Temperature Precipitation Wind Pressure Humidity
    00:00 +16°C° 0 mm 1 mps 723 mmHg 81%
    01:00 +16°C° 0 mm 1 mps 723 mmHg 81%
    02:00 +15°C° 0 mm 1 mps 723 mmHg 81%
    03:00 +15°C° 0 mm 1 mps 723 mmHg 81%
    04:00 +15°C° 0 mm 1 mps 723 mmHg 81%
    05:00 +18°C° 0 mm 1 mps 723 mmHg 78%
    06:00 +19°C° 0 mm 1 mps 723 mmHg 75%
    07:00 +21°C° 0 mm 1 mps 723 mmHg 72%
    08:00 +23°C° 0 mm 1 mps 723 mmHg 65%
    09:00 +25°C° 0 mm 1 mps 724 mmHg 58%
    10:00 +27°C° 0 mm 1 mps 724 mmHg 51%
    11:00 +28°C° 0.3 mm 1 mps 724 mmHg 49%
    12:00 +28°C° 0.3 mm 2 mps 724 mmHg 46%
    13:00 +29°C° 0.3 mm 2 mps 724 mmHg 44%
    14:00 +29°C° 0.4 mm 2 mps 724 mmHg 46%
    15:00 +29°C° 0.4 mm 2 mps 724 mmHg 48%
    16:00 +29°C° 0.4 mm 2 mps 723 mmHg 51%
    17:00 +27°C° 0.4 mm 1 mps 723 mmHg 59%
    18:00 +26°C° 0.4 mm 1 mps 723 mmHg 67%
    19:00 +24°C° 0.4 mm 1 mps 723 mmHg 76%
    20:00 +23°C° 0.1 mm 1 mps 724 mmHg 78%
    21:00 +21°C° 0.1 mm 1 mps 724 mmHg 80%
    22:00 +20°C° 0.1 mm 1 mps 724 mmHg 82%
    23:00 +20°C° 0 mm 1 mps 724 mmHg 82%

    27 May, Sunday

    Time Temperature Precipitation Wind Pressure Humidity
    00:00 +19°C° 0 mm 1 mps 724 mmHg 81%
    01:00 +19°C° 0 mm 1 mps 724 mmHg 80%
    02:00 +19°C° 0 mm 1 mps 724 mmHg 79%
    03:00 +19°C° 0 mm 1 mps 723 mmHg 79%
    04:00 +18°C° 0 mm 1 mps 723 mmHg 78%
    05:00 +20°C° 0 mm 1 mps 723 mmHg 77%
    06:00 +21°C° 0 mm 1 mps 723 mmHg 75%
    07:00 +22°C° 0 mm 1 mps 723 mmHg 74%
    08:00 +24°C° 0 mm 1 mps 723 mmHg 67%
    09:00 +26°C° 0 mm 1 mps 723 mmHg 60%
    10:00 +28°C° 0 mm 1 mps 723 mmHg 53%
    11:00 +28°C° 0.3 mm 1 mps 723 mmHg 51%
    12:00 +29°C° 0.3 mm 2 mps 723 mmHg 50%
    13:00 +30°C° 0.3 mm 2 mps 723 mmHg 49%
    14:00 +29°C° 0.5 mm 1 mps 723 mmHg 51%
    15:00 +29°C° 0.5 mm 1 mps 722 mmHg 54%
    16:00 +28°C° 0.5 mm 1 mps 722 mmHg 57%
    17:00 +27°C° 0.7 mm 1 mps 722 mmHg 64%
    18:00 +26°C° 0.7 mm 1 mps 722 mmHg 72%
    19:00 +25°C° 0.7 mm 1 mps 722 mmHg 80%
    20:00 +23°C° 0.6 mm 1 mps 722 mmHg 83%
    21:00 +21°C° 0.6 mm 2 mps 722 mmHg 85%
    22:00 +20°C° 0.6 mm 2 mps 722 mmHg 88%
    23:00 +20°C° 0.7 mm 2 mps 722 mmHg 89%

    28 May, Monday

    Time Temperature Precipitation Wind Pressure Humidity
    00:00 +19°C° 0.7 mm 2 mps 722 mmHg 89%
    01:00 +19°C° 0.7 mm 2 mps 722 mmHg 90%
    02:00 +20°C° 0.4 mm 1 mps 722 mmHg 90%
    03:00 +19°C° 0.4 mm 1 mps 722 mmHg 90%
    04:00 +19°C° 0.4 mm 1 mps 722 mmHg 91%
    05:00 +19°C° 0.1 mm 1 mps 722 mmHg 89%
    06:00 +20°C° 0.1 mm 1 mps 722 mmHg 87%
    07:00 +21°C° 0.1 mm 1 mps 722 mmHg 85%
    08:00 +23°C° 0.9 mm 1 mps 723 mmHg 79%
    09:00 +24°C° 0.9 mm 1 mps 723 mmHg 74%
    10:00 +26°C° 0.9 mm 1 mps 723 mmHg 68%
    11:00 +27°C° 1 mm 1 mps 722 mmHg 64%
    12:00 +27°C° 1 mm 2 mps 722 mmHg 61%
    13:00 +28°C° 1 mm 2 mps 722 mmHg 58%
    14:00 +28°C° 0.9 mm 2 mps 722 mmHg 59%
    15:00 +28°C° 0.9 mm 2 mps 721 mmHg 60%
    16:00 +28°C° 0.9 mm 2 mps 721 mmHg 61%
    17:00 +26°C° 0.9 mm 2 mps 721 mmHg 67%
    18:00 +25°C° 0.9 mm 1 mps 721 mmHg 74%
    19:00 +24°C° 0.9 mm 1 mps 721 mmHg 80%
    20:00 +23°C° 0.7 mm 1 mps 721 mmHg 83%
    21:00 +20°C° 0.7 mm 2 mps 722 mmHg 85%
    22:00 +19°C° 0.7 mm 2 mps 722 mmHg 88%
    23:00 +18°C° 0.4 mm 2 mps 722 mmHg 88%

    29 May, Tuesday

    Time Temperature Precipitation Wind Pressure Humidity
    00:00 +18°C° 0.4 mm 2 mps 722 mmHg 88%
    01:00 +17°C° 0.4 mm 2 mps 723 mmHg 88%
    02:00 +18°C° 0.1 mm 1 mps 723 mmHg 88%
    03:00 +18°C° 0.1 mm 1 mps 722 mmHg 87%
    04:00 +16°C° 0.1 mm 1 mps 722 mmHg 87%
    05:00 +19°C° 0 mm 1 mps 723 mmHg 84%
    06:00 +20°C° 0 mm 1 mps 723 mmHg 81%
    07:00 +21°C° 0 mm 1 mps 723 mmHg 78%
    08:00 +23°C° 0 mm 1 mps 723 mmHg 71%
    09:00 +25°C° 0 mm 1 mps 723 mmHg 64%
    10:00 +27°C° 0 mm 1 mps 723 mmHg 57%
    11:00 +27°C° 0.3 mm 1 mps 723 mmHg 58%
    12:00 +27°C° 0.3 mm 1 mps 723 mmHg 58%
    13:00 +27°C° 0.3 mm 2 mps 723 mmHg 59%
    14:00 +28°C° 0.7 mm 2 mps 723 mmHg 59%
    15:00 +28°C° 0.7 mm 2 mps 722 mmHg 59%
    16:00 +28°C° 0.7 mm 1 mps 722 mmHg 59%
    17:00 +27°C° 0.7 mm 1 mps 722 mmHg 66%
    18:00 +26°C° 0.7 mm 1 mps 722 mmHg 73%
    19:00 +24°C° 0.7 mm 1 mps 722 mmHg 80%
    20:00 +23°C° 0.3 mm 1 mps 722 mmHg 82%
    21:00 +22°C° 0.3 mm 1 mps 722 mmHg 84%
    22:00 +21°C° 0.3 mm 1 mps 723 mmHg 87%
    23:00 +20°C° 0 mm 1 mps 722 mmHg 87%
    Show more